TimeCDT,TemperatureF,Dew PointF,Humidity,Sea Level PressureIn,VisibilityMPH,Wind Direction,Wind SpeedMPH,Gust SpeedMPH,PrecipitationIn,Events,Conditions,WindDirDegrees,DateUTC
12:53 AM,57.0,39.9,53,30.05,10.0,South,3.5,-,N/A,,Clear,180,2013-04-07 05:53:00
1:53 AM,57.9,41.0,53,30.04,10.0,SSW,6.9,-,N/A,,Clear,200,2013-04-07 06:53:00
2:53 AM,59.0,42.1,53,30.05,10.0,SW,6.9,-,N/A,,Clear,220,2013-04-07 07:53:00
3:53 AM,57.0,44.1,62,30.05,10.0,SSW,5.8,-,N/A,,Clear,210,2013-04-07 08:53:00
4:53 AM,57.0,44.1,62,30.06,10.0,SSW,3.5,-,N/A,,Clear,200,2013-04-07 09:53:00
5:53 AM,55.0,45.0,69,30.07,10.0,SSE,4.6,-,N/A,,Clear,160,2013-04-07 10:53:00
6:53 AM,53.1,45.0,74,30.09,10.0,SSE,4.6,-,N/A,,Clear,160,2013-04-07 11:53:00
7:53 AM,57.0,48.0,72,30.12,10.0,SSE,4.6,-,N/A,,Clear,160,2013-04-07 12:53:00
8:53 AM,60.1,50.0,69,30.12,10.0,South,4.6,-,N/A,,Clear,190,2013-04-07 13:53:00
9:53 AM,64.0,52.0,65,30.11,10.0,SSW,8.1,-,N/A,,Clear,200,2013-04-07 14:53:00
10:53 AM,66.0,51.1,59,30.11,10.0,SW,5.8,-,N/A,,Clear,220,2013-04-07 15:53:00
11:53 AM,70.0,46.9,44,30.09,10.0,SSW,18.4,25.3,N/A,,Clear,210,2013-04-07 16:53:00
12:53 PM,73.0,48.9,42,30.07,10.0,SSW,15.0,-,N/A,,Clear,200,2013-04-07 17:53:00
1:53 PM,73.0,45.0,37,30.05,10.0,SSW,11.5,20.7,N/A,,Clear,210,2013-04-07 18:53:00
2:53 PM,75.0,44.1,33,30.02,10.0,SW,13.8,20.7,N/A,,Clear,220,2013-04-07 19:53:00
3:53 PM,73.9,46.9,38,30.01,10.0,SSW,6.9,-,N/A,,Clear,200,2013-04-07 20:53:00
4:53 PM,73.9,46.9,38,30.01,10.0,South,8.1,16.1,N/A,,Clear,190,2013-04-07 21:53:00
5:53 PM,73.0,46.9,39,30.00,10.0,South,8.1,-,N/A,,Clear,180,2013-04-07 22:53:00
6:53 PM,70.0,46.0,42,29.99,10.0,South,6.9,-,N/A,,Clear,180,2013-04-07 23:53:00
7:53 PM,66.9,45.0,45,29.99,10.0,South,4.6,-,N/A,,Clear,190,2013-04-08 00:53:00
8:53 PM,62.1,46.9,58,30.02,10.0,West,5.8,-,N/A,,Clear,280,2013-04-08 01:53:00
9:53 PM,61.0,48.0,62,30.02,10.0,Calm,Calm,-,N/A,,Clear,0,2013-04-08 02:53:00
10:53 PM,57.9,48.0,70,30.01,10.0,South,4.6,-,N/A,,Clear,170,2013-04-08 03:53:00
11:53 PM,57.9,48.0,70,30.00,10.0,SSE,5.8,-,N/A,,Clear,160,2013-04-08 04:53:00